Printer-friendly version

IAU Minor Planet Center

Minor Planet Center

MPEC 2008-E43 : 2007 VK305

The following Minor Planet Electronic Circular may be linked-to from your own Web pages, but must not otherwise be redistributed electronically.


Read MPEC 2008-E42 Read MPEC 2008-E44


M.P.E.C. 2008-E43                                Issued 2008 Mar. 4, 22:50 UT

     The Minor Planet Electronic Circulars contain information on unusual
         minor planets and routine data on comets.  They are published
   on behalf of Commission 20 of the International Astronomical Union by the
          Minor Planet Center, Smithsonian Astrophysical Observatory,
                          Cambridge, MA 02138, U.S.A.

             Prepared using the Tamkin Foundation Computer Network

                              MPC@CFA.HARVARD.EDU
          URL http://www.cfa.harvard.edu/iau/mpc.html  ISSN 1523-6714

                                  2007 VK305

Observations:
     K07VU5K  C2005 09 09.45948 03 22 53.11 +00 57 07.2          22.8   EE043705
     K07VU5K  C2005 09 09.46280 03 22 53.08 +00 57 07.2          23.7   EE043705
     K07VU5K  C2005 10 01.40108 03 22 09.80 +00 47 26.5          23.1   EE043705
     K07VU5K  C2005 10 01.40440 03 22 09.79 +00 47 27.0          24.1   EE043705
     K07VU5K  C2006 09 27.45768 03 26 17.66 +00 53 36.6          22.9   EE043705
     K07VU5K  C2006 09 27.46100 03 26 17.65 +00 53 36.7          23.9   EE043705
     K07VU5K  C2006 10 01.47138 03 26 07.74 +00 51 50.2          23.0   EE043705
     K07VU5K  C2006 10 01.47470 03 26 07.73 +00 51 50.1          24.3   EE043705
     K07VU5K  C2006 10 02.39849 03 26 05.33 +00 51 26.0          23.4   EE043705
     K07VU5K  C2006 10 02.39932 03 26 05.33 +00 51 25.7          24.9   EE043705
     K07VU5K  C2006 10 23.37696 03 24 59.14 +00 42 37.6          23.1   EE043705
     K07VU5K  C2006 10 23.37779 03 24 59.14 +00 42 37.5          24.2   EE043705
     K07VU5K  C2006 10 31.38036 03 24 29.47 +00 39 38.2          22.6   EE043705
     K07VU5K  C2006 10 31.38285 03 24 29.46 +00 39 37.9          23.6   EE043705
     K07VU5K  C2006 11 17.37716 03 23 22.75 +00 34 22.0          22.9   EE043705
     K07VU5K  C2006 11 17.37799 03 23 22.73 +00 34 21.9          24.3   EE043705
     K07VU5K  C2006 11 23.37606 03 22 59.00 +00 32 55.8          23.1   EE043705
     K07VU5K  C2006 11 23.37689 03 22 58.99 +00 32 55.9          24.5   EE043705
     K07VU5K  C2007 09 19.46937 03 30 28.45 +01 01 27.4          23.0   EE043705
     K07VU5K  C2007 09 19.47020 03 30 28.46 +01 01 27.0          24.2   EE043705
     K07VU5K* C2007 11 02.37238 03 28 18.80 +00 43 24.0          22.9   EE043705
     K07VU5K  C2007 11 02.37321 03 28 18.80 +00 43 24.0          23.8   EE043705
     K07VU5K  C2007 11 05.37709 03 28 07.25 +00 42 22.9          23.1   EE043705
     K07VU5K  C2007 11 05.37792 03 28 07.26 +00 42 23.0          24.0   EE043705
     K07VU5K  C2007 11 12.37075 03 27 39.88 +00 40 12.9          23.2   EE043705
     K07VU5K  C2007 11 12.37158 03 27 39.87 +00 40 12.8          24.5   EE043705
     K07VU5K  C2007 11 19.35278 03 27 12.19 +00 38 20.4          22.9   EE043705
     K07VU5K  C2007 11 19.35361 03 27 12.20 +00 38 20.4          23.7   EE043705
     K07VU5K  C2007 11 20.31243 03 27 08.44 +00 38 06.2          23.1   EE043705
     K07VU5K  C2007 11 20.31326 03 27 08.41 +00 38 06.6          24.5   EE043705

Observer details:
705 Apache Point.  Observer SDSS Collaboration.  Measurers A. C. Becker,
    A. W. Puckett, J. Kubica.  2.5-m f/5 Ritchey-Chretien + CCD.

Orbital elements:
2007 VK305
Epoch 2008 May 14.0 TT = JDT 2454600.5                  MPC
M  54.23901              (2000.0)            P               Q
n   0.00228765     Peri.  143.52947     +0.72237802     +0.68994695
a  57.0440030      Node   172.31588     -0.68755124     +0.72378616
e   0.3638991      Incl.   20.25682     -0.07377865     +0.01033409
P 431              H    5.7           G   0.15           U   4
Residuals in seconds of arc
050909 705  0.1+  0.1-    061023 705  0.2-  0.0     071102 705  0.0   0.1+
050909 705  0.2-  0.0     061023 705  0.1-  0.1-    071102 705  0.1+  0.1+
051001 705  0.1+  0.2-    061031 705  0.2-  0.1+    071105 705  0.1-  0.1-
051001 705  0.1+  0.4+    061031 705  0.2-  0.2-    071105 705  0.1+  0.0
060927 705  0.1+  0.1+    061117 705  0.1+  0.0     071112 705  0.2+  0.2+
060927 705  0.0   0.3+    061117 705  0.2-  0.1-    071112 705  0.1+  0.1+
061001 705  0.0   0.1-    061123 705  0.2+  0.3-    071119 705  0.3-  0.0
061001 705  0.0   0.1-    061123 705  0.1+  0.2-    071119 705  0.1-  0.0
061002 705  0.1+  0.1+    070919 705  0.1-  0.1+    071120 705  0.3+  0.2-
061002 705  0.2+  0.1-    070919 705  0.0   0.3-    071120 705  0.1-  0.2+

Ephemeris:
2007 VK305               a,e,i = 57.04, 0.36, 20                 q = 36.286
Date    TT    R. A. (2000) Decl.     Delta      r     Elong.  Phase     V
2008 03 05    03 24.50   +00 53.4   51.772   51.369    65.5     1.0    23.0
2008 03 15    03 24.92   +00 57.9   51.924   51.378    56.2     0.9    23.0
2008 03 25    03 25.45   +01 02.4   52.060   51.387    47.1     0.8    23.0
2008 04 04    03 26.07   +01 06.8   52.176   51.395    38.4     0.7    23.0
2008 04 14    03 26.77   +01 11.1   52.269   51.404    30.2     0.6    23.0

2008 06 13    03 31.54   +01 27.3   52.283   51.457    35.3     0.7    23.0
2008 06 23    03 32.26   +01 27.8   52.197   51.466    43.6     0.8    23.0
2008 07 03    03 32.90   +01 27.6   52.092   51.475    52.2     0.9    23.0
2008 07 13    03 33.47   +01 26.7   51.969   51.484    61.0     1.0    23.0
2008 07 23    03 33.93   +01 25.1   51.833   51.493    69.9     1.1    23.0
2008 08 02    03 34.29   +01 22.9   51.687   51.502    78.9     1.1    23.0
2008 08 12    03 34.53   +01 20.1   51.535   51.510    88.0     1.1    23.0
2008 08 22    03 34.64   +01 16.7   51.383   51.519    97.2     1.1    23.0
2008 09 01    03 34.63   +01 13.0   51.234   51.528   106.4     1.1    23.0
2008 09 11    03 34.50   +01 08.9   51.094   51.537   115.6     1.0    23.0
2008 09 21    03 34.25   +01 04.7   50.966   51.546   124.8     0.9    22.9
2008 10 01    03 33.89   +01 00.3   50.855   51.555   133.9     0.8    22.9
2008 10 11    03 33.44   +00 56.1   50.765   51.564   142.8     0.7    22.9
2008 10 21    03 32.90   +00 52.0   50.699   51.572   151.1     0.5    22.9
2008 10 31    03 32.30   +00 48.3   50.659   51.581   158.1     0.4    22.9
2008 11 10    03 31.66   +00 45.0   50.647   51.590   162.0     0.3    22.9
2008 11 20    03 31.00   +00 42.4   50.665   51.599   160.8     0.4    22.9
2008 11 30    03 30.35   +00 40.4   50.711   51.608   155.1     0.5    22.9
2008 12 10    03 29.74   +00 39.1   50.786   51.617   147.3     0.6    22.9
2008 12 20    03 29.17   +00 38.6   50.886   51.626   138.4     0.7    22.9
2008 12 30    03 28.69   +00 39.0   51.009   51.634   129.1     0.8    22.9
2009 01 09    03 28.30   +00 40.1   51.152   51.643   119.5     0.9    23.0
2009 01 19    03 28.01   +00 41.9   51.310   51.652   109.8     1.0    23.0
2009 01 29    03 27.85   +00 44.5   51.478   51.661   100.2     1.1    23.0
2009 02 08    03 27.82   +00 47.7   51.652   51.670    90.5     1.1    23.0
2009 02 18    03 27.91   +00 51.3   51.826   51.679    80.9     1.1    23.0
2009 02 28    03 28.14   +00 55.4   51.995   51.687    71.4     1.0    23.0
2009 03 10    03 28.48   +00 59.7   52.155   51.696    62.0     1.0    23.0
2009 03 20    03 28.94   +01 04.1   52.301   51.705    52.8     0.9    23.0
2009 03 30    03 29.50   +01 08.6   52.429   51.714    43.9     0.8    23.0
2009 04 09    03 30.15   +01 12.9   52.537   51.723    35.3     0.6    23.0

Brian G. Marsden             (C) Copyright 2008 MPC           M.P.E.C. 2008-E43

Read MPEC 2008-E42 Read MPEC 2008-E44


Our Web policy. Index to the CBAT/MPC/ICQ pages.


Valid HTML 4.01!